Regional Weather Roundup
Issued by NWS Huntsville, AL

Home | Current Version | Previous Version | Text Only | Print | Product List | Glossary On
Versions: 1 2 3 4 5 6 7 8 9 10 11 12 13 14 15 16 17 18 19 20 21 22 23 24 25 26 27 28 29 30 31 32 33 34 35 36 37 38 39 40 41 42 43 44 45 46 47 48 49 50
000
ASUS44 KHUN 290310
RWRHUN

WEATHER ROUNDUP FOR THE TENNESSEE VALLEY
NATIONAL WEATHER SERVICE HUNTSVILLE AL
1000 PM CDT THU MAY 28 2015

ALZ001>004-290400-
NORTHWEST ALABAMA

CITY           SKY/WX    TMP DP  RH WIND       PRES   REMARKS
COURTLAND HCN    N/A     70 N/A N/A CALM        N/A
BANKHEAD NF      N/A     68  67  98 E1          N/A
RUSSELLVILLE     N/A     68 N/A N/A MISG        N/A
SHOALS AIRPORT CLOUDY    71  66  84 SE6       30.16R
$$

ALZ005>007-016-290400-
NORTH CENTRAL ALABAMA

CITY           SKY/WX    TMP DP  RH WIND       PRES   REMARKS
DECATUR AP     PTCLDY    69  68  96 SE7       30.18R
HUNTSVILLE AP  MOCLDY    72  67  84 SE8       30.17R
HUN NWS/UAH      N/A     71  66  84 S3          N/A
MERIDIANVILLE  CLOUDY    70  63  78 CALM      30.19R
REDSTONE ARSN  CLOUDY    70  67  91 SE7       30.17R
VINEMONT AP    FAIR      67  65  93 SE7       30.21R
$$

ALZ008>010-290400-
NORTHEAST ALABAMA

CITY           SKY/WX    TMP DP  RH WIND       PRES   REMARKS
ALBERTVILLE    CLOUDY    68  68 100 S5        30.20R
FORT PAYNE     CLOUDY    70  64  83 CALM      30.21R
SCOTTSBORO HCN   N/A     68 N/A N/A MISG        N/A
VALLEY HEAD      N/A     70 N/A N/A MISG        N/A
$$

TNZ076-096-097-290400-
SOUTHEASTERN MIDDLE TENNESSEE

CITY           SKY/WX    TMP DP  RH WIND       PRES   REMARKS
TULLAHOMA      CLEAR     68  64  88 CALM      30.21R
WINCHESTER     PTCLDY    70  66  88 S5        30.19S
$$

...SURROUNDING SITES...

CITY           SKY/WX    TMP DP  RH WIND       PRES   REMARKS
ATLANTA        LGT RAIN  70  66  87 E6        30.22R
ANNISTON       CLOUDY    70  68  93 CALM      30.21S
BIRMINGHAM     CLOUDY    69  67  93 SE13G18   30.19S
CHATTANOOGA    CLOUDY    69  67  93 CALM      30.22R
CORINTH        FAIR      72  68  88 SE7       30.10S
DALTON         CLOUDY    68  68 100 CALM      30.22R
GADSDEN        CLOUDY   N/A N/A N/A CALM      30.20R
GOLDEN TRNGL   MOCLDY    73  68  83 SE8       30.10S
HALEYVILLE     FAIR      69  69 100 SE3       30.19R
JACKSON TN     CLEAR     70  66  87 S5        30.10R
LEWISBURG      CLOUDY    68  66  93 SE5       30.17R
MEMPHIS        PTCLDY    76  65  68 SE6       30.07S
NASHVILLE      MOCLDY    76  66  71 SE7       30.15R
OXFORD MS      FAIR      70  66  88 SE3       30.10F
ROME           CLOUDY    69  68  96 NE3       30.20R
SAVANNAH       CLOUDY    72  32  23 CALM      30.14R
TUPELO         CLEAR     74  66  76 SE8       30.11R
TUSCALOOSA     MOCLDY    74  69  85 E6        30.14R
$$

...GULF COAST WEATHER...

CITY           SKY/WX    TMP DP  RH WIND       PRES   REMARKS
GULFPORT       CLEAR     79  72  79 SE7       30.09R
PASCAGOULA     PTCLDY    71  70  96 CALM      30.11R
MOBILE         PTCLDY    72  71  97 NE3       30.12R
GULF SHORES    PTCLDY    73  72  97 SE6       30.12R
PENSACOLA      MOCLDY    77  72  84 SE8       30.12R
DESTIN         CLOUDY    75  72  90 E3        30.13S
PANAMA CITY    MOCLDY    72  71  97 N3        30.14R
APPALACHICOLA  CLEAR     75  70  84 N5        30.14R
$$



USA.gov is the U.S. government's official web portal to all federal, state and local government web resources and services.